DMSP 5D-2 F13 DEB, 40558

Orbit data source: Space-Track

DMSP 5D-2 F13 DEB, 40558 is space debris in SSO originally from a launch on Fri, 24 Mar 1995 UTC launched from the Air Force Western Test Range (AFWTR). Debris objects in space refer to the collection of defunct objects orbiting the Earth. Examples of debris include non-operational satellites, rocket bodies, and fragments generated from explosions, collisions, or faulty payload assembly.

Loading next visibility...
Identifier
40558, 1995-015DR
Orbit
SSO
Last TLE update
14 hours ago
Origin
Manufacturer
Unknown
Mission
Spacecraft
Bus & Motor
Unknown
Mass
Unknown
Launch date (UTC)
1995-03-24 (30 years ago)
Launch vehicle
Unknown
Launch site
Air Force Western Test Range (AFWTR)
Object type
Payload
Rocket body
Debris
Shape & HBR
Unknown
Radar Cross Section
Small (<0.1 m²)

Expand to show TLE details & history

TLE from 14 hours ago
0 DMSP 5D-2 F13 DEB
1 40558U 95015DR  25191.42167311  .00002142  00000-0  98730-3 0  9994
2 40558  98.9388 174.9074 0044251 328.8174  31.0378 14.21625226527939
Epoch: 2025-07-10T10:07Z
TLE epoch observation values (Epoch: 2025-07-10T10:07:12.556Z)
Latitude
-0.00007°
Longitude
94.51691°
Altitude
795.512 km
Speed
7.47 km/s
True Right ascension
11h 39m 37s
True Declination
0° 00' 00"
Sunlit
Object was in daylight at epoch
Visualization orbit readout
Latitude
1.57935°
Longitude
-84.6305°
Altitude
849.785 km
Speed
7.414 km/s
Apparent Right ascension
00h 07m 51s
Apparent Declination
-17° 51' 37"
Sunlit
Object is in daylight
Visualization observer readout
Local Sidereal Time
12:44:33
Azimuth
22.423° NNE
Elevation
-66.561°
Doppler factor
1
Orbital elements
Apogee altitude
848.868 km
Perigee altitude
785.19 km
Semi-major axis
7,195.166 km
Eccentricity
0.00443
Inclination
98.9388°
RAAN
174.9074°
Arg. of periapsis
328.8174°
True anomaly
Unknown
Mean anomaly
31.0378°
Eccentric anomaly
Unknown
Mean motion
3.55617 °/min
Orbital period
101.23 mins
BSTAR
0.0009873
Loading maneuver chart data...
Loading SW <> Apogee altitude chart data...

DMSP 5D-2 F13 DEB Visibility forecast

Observer location: undefined°, undefined°

Span
Click to sort rows by Start time (UTC) header in descending order
Start Az.
Max El. time (UTC)
Max El. Az.
Max El.
End time (UTC)
End Az.
4 mins2025-07-11 10:24:18.736Z70.353° E2025-07-11 10:26:18.736Z93.72° ESE13.496°2025-07-11 10:28:18.736Z116.257° SE
9 mins2025-07-11 12:02:18.736Z8.414° NNE2025-07-11 12:06:18.736Z312.876° NW43.526°2025-07-11 12:11:18.736Z203.546° SW
6 mins2025-07-11 21:45:18.736Z103.614° ESE2025-07-11 21:48:18.736Z60.699° ENE21.14°2025-07-11 21:51:18.736Z20.851° NNE
8 mins2025-07-11 23:24:18.736Z195.144° SSW2025-07-11 23:28:18.736Z276.36° WNW34.868°2025-07-11 23:32:18.736Z330.923° NNW
|